Location: Arrien
(42.8963°N, 1.0429°E)
Time: 03:20:13
(UTC+00:00)

YAOGAN 1 - Pass Details

Date: 11 December 2025
Orbit: 605 x 607 km, 97.8° (Epoch: 12 January)

Event Time Altitude Azimuth Distance (km) Brightness Sun altitude
Rises 16:54:41 0° 112° (ESE) 2,859 5.6 -6.2°
Reaches altitude 10° 16:58:24 10° 78° (ENE) 1,961 4.5 -6.8°
Maximum altitude 16:59:40 11° 61° (ENE) 1,885 4.4 -7.0°
Drops below altitude 10° 17:00:55 10° 44° (NE) 1,965 4.6 -7.2°
Sets 17:04:39 0° 10° (N) 2,875 5.6 -7.8°
